Location: Hermaringen
(48.5952°N, 10.2585°E)
Time: 06:15:54
(UTC+00:00)

Altair - Pass Details

Date: 19 February 2026
Orbit: 1502 x 1682 km, 47.2° (Epoch: 9 March)

Event Time Altitude Azimuth Distance (km) Brightness Sun altitude
Rises 08:44:55 0° 286° (WNW) 4,696 9.5 19.7°
Reaches altitude 10° 08:47:59 10° 283° (WNW) 3,732 9.1 20.0°
Maximum altitude 08:57:11 59° 207° (SSW) 1,798 8.4 21.0°
Drops below altitude 10° 09:06:44 10° 132° (SE) 3,862 11.6 22.1°
Sets 09:09:57 0° 128° (SE) 4,868 11.5 22.4°
